Location: *
(38.3914°N, 75.0697°W)
Time: 17:30:20
(UTC+00:00)

Cosmos 292 Rocket - Pass Details

Date: 17 February 2020
Orbit: 674 x 693 km, 74.1° (Epoch: 28 March)

Event Time Altitude Azimuth Distance (km) Brightness Sun altitude
Exits shadow 09:39:19 35° 360° (N) 1,091 4.8 -26.0°
Maximum altitude 09:41:13 65° 70° (ENE) 740 4.0 -25.7°
Drops below altitude 10° 09:45:55 10° 153° (SSE) 2,100 6.5 -24.7°
Sets 09:48:13 0° 156° (SSE) 3,011 7.3 -24.3°
